Year,Month,Day,Hour,Minute,Value (Times are PST for temperature in C)
2019,04,17,00,00,10.30
2019,04,17,00,01,10.30
2019,04,17,00,02,10.30
2019,04,17,00,03,10.30
2019,04,17,00,04,10.30
2019,04,17,00,05,10.30
2019,04,17,00,06,10.30
2019,04,17,00,07,10.30
2019,04,17,00,08,10.30
2019,04,17,00,09,10.30
2019,04,17,00,10,10.40
2019,04,17,00,11,10.40
2019,04,17,00,12,10.40
2019,04,17,00,13,10.40
2019,04,17,00,14,10.40
2019,04,17,00,15,10.40
2019,04,17,00,16,10.40
2019,04,17,00,17,10.40
2019,04,17,00,18,10.50
2019,04,17,00,19,10.50
2019,04,17,00,20,10.50
2019,04,17,00,21,10.50
2019,04,17,00,22,10.50
2019,04,17,00,23,10.50
2019,04,17,00,24,10.60
2019,04,17,00,25,10.60
2019,04,17,00,26,10.60
2019,04,17,00,27,10.60
2019,04,17,00,28,10.60
2019,04,17,00,29,10.60
2019,04,17,00,30,10.50
2019,04,17,00,31,10.60
2019,04,17,00,32,10.60
2019,04,17,00,33,10.60
2019,04,17,00,34,10.60
2019,04,17,00,35,10.60
2019,04,17,00,36,10.60
2019,04,17,00,37,10.60
2019,04,17,00,38,10.60
2019,04,17,00,39,10.60
2019,04,17,00,40,10.60
2019,04,17,00,41,10.60
2019,04,17,00,42,10.60
2019,04,17,00,43,10.60
2019,04,17,00,44,10.60
2019,04,17,00,45,10.60
2019,04,17,00,46,10.60
2019,04,17,00,47,10.60
2019,04,17,00,48,10.60
2019,04,17,00,49,10.60
2019,04,17,00,50,10.50
2019,04,17,00,51,10.60
2019,04,17,00,52,10.60
2019,04,17,00,53,10.50
2019,04,17,00,54,10.50
2019,04,17,00,55,10.50
2019,04,17,00,56,10.50
2019,04,17,00,57,10.50
2019,04,17,00,58,10.50
2019,04,17,00,59,10.50
2019,04,17,01,00,10.50
2019,04,17,01,01,10.40
2019,04,17,01,02,10.50
2019,04,17,01,03,10.50
2019,04,17,01,04,10.50
2019,04,17,01,05,10.40
2019,04,17,01,06,10.40
2019,04,17,01,07,10.40
2019,04,17,01,08,10.40
2019,04,17,01,09,10.40
2019,04,17,01,10,10.40
2019,04,17,01,11,10.40
2019,04,17,01,12,10.40
2019,04,17,01,13,10.40
2019,04,17,01,14,10.50
2019,04,17,01,15,10.50
2019,04,17,01,16,10.50
2019,04,17,01,17,10.40
2019,04,17,01,18,10.50
2019,04,17,01,19,10.50
2019,04,17,01,20,10.50
2019,04,17,01,21,10.50
2019,04,17,01,22,10.50
2019,04,17,01,23,10.50
2019,04,17,01,24,10.50
2019,04,17,01,25,10.50
2019,04,17,01,26,10.50
2019,04,17,01,27,10.50
2019,04,17,01,28,10.50
2019,04,17,01,29,10.50
2019,04,17,01,30,10.50
2019,04,17,01,31,10.50
2019,04,17,01,32,10.50
2019,04,17,01,33,10.50
2019,04,17,01,34,10.50
2019,04,17,01,35,10.50
2019,04,17,01,36,10.50
2019,04,17,01,37,10.50
2019,04,17,01,38,10.50
2019,04,17,01,39,10.50
2019,04,17,01,40,10.50
2019,04,17,01,41,10.50
2019,04,17,01,42,10.50
2019,04,17,01,43,10.50
2019,04,17,01,44,10.50
2019,04,17,01,45,10.50
2019,04,17,01,46,10.50
2019,04,17,01,47,10.60
2019,04,17,01,48,10.60
2019,04,17,01,49,10.60
2019,04,17,01,50,10.60
2019,04,17,01,51,10.70
2019,04,17,01,52,10.70
2019,04,17,01,53,10.70
2019,04,17,01,54,10.70
2019,04,17,01,55,10.70
2019,04,17,01,56,10.70
2019,04,17,01,57,10.70
2019,04,17,01,58,10.70
2019,04,17,01,59,10.70
2019,04,17,02,00,10.70
2019,04,17,02,01,10.70
2019,04,17,02,02,10.70
2019,04,17,02,03,10.70
2019,04,17,02,04,10.70
2019,04,17,02,05,10.70
2019,04,17,02,06,10.70
2019,04,17,02,07,10.70
2019,04,17,02,08,10.80
2019,04,17,02,09,10.80
2019,04,17,02,10,10.70
2019,04,17,02,11,10.70
2019,04,17,02,12,10.70
2019,04,17,02,13,10.70
2019,04,17,02,14,10.70
2019,04,17,02,15,10.70
2019,04,17,02,16,10.70
2019,04,17,02,17,10.70
2019,04,17,02,18,10.70
2019,04,17,02,19,10.70
2019,04,17,02,20,10.70
2019,04,17,02,21,10.70
2019,04,17,02,22,10.70
2019,04,17,02,23,10.70
2019,04,17,02,24,10.70
2019,04,17,02,25,10.70
2019,04,17,02,26,10.70
2019,04,17,02,27,10.70
2019,04,17,02,28,10.70
2019,04,17,02,29,10.70
2019,04,17,02,30,10.70
2019,04,17,02,31,10.70
2019,04,17,02,32,10.70
2019,04,17,02,33,10.70
2019,04,17,02,34,10.70
2019,04,17,02,35,10.70
2019,04,17,02,36,10.70
2019,04,17,02,37,10.70
2019,04,17,02,38,10.70
2019,04,17,02,39,10.70
2019,04,17,02,40,10.70
2019,04,17,02,41,10.70
2019,04,17,02,42,10.70
2019,04,17,02,43,10.70
2019,04,17,02,44,10.70
2019,04,17,02,45,10.70
2019,04,17,02,46,10.70
2019,04,17,02,47,10.70
2019,04,17,02,48,10.70
2019,04,17,02,49,10.70
2019,04,17,02,50,10.70
2019,04,17,02,51,10.70
2019,04,17,02,52,10.70
2019,04,17,02,53,10.70
2019,04,17,02,54,10.70
2019,04,17,02,55,10.70
2019,04,17,02,56,10.70
2019,04,17,02,57,10.70
2019,04,17,02,58,10.70
2019,04,17,02,59,10.70
2019,04,17,03,00,10.70
2019,04,17,03,01,10.70
2019,04,17,03,02,10.70
2019,04,17,03,03,10.70
2019,04,17,03,04,10.70
2019,04,17,03,05,10.70
2019,04,17,03,06,10.70
2019,04,17,03,07,10.70
2019,04,17,03,08,10.70
2019,04,17,03,09,10.70
2019,04,17,03,10,10.70
2019,04,17,03,11,10.70
2019,04,17,03,12,10.70
2019,04,17,03,13,10.70
2019,04,17,03,14,10.70
2019,04,17,03,15,10.70
2019,04,17,03,16,10.70
2019,04,17,03,17,10.70
2019,04,17,03,18,10.70
2019,04,17,03,19,10.70
2019,04,17,03,20,10.70
2019,04,17,03,21,10.70
2019,04,17,03,22,10.70
2019,04,17,03,23,10.70
2019,04,17,03,24,10.80
2019,04,17,03,25,10.70
2019,04,17,03,26,10.70
2019,04,17,03,27,10.70
2019,04,17,03,28,10.70
2019,04,17,03,29,10.70
2019,04,17,03,30,10.70
2019,04,17,03,31,10.70
2019,04,17,03,32,10.70
2019,04,17,03,33,10.70
2019,04,17,03,34,10.70
2019,04,17,03,35,10.70
2019,04,17,03,36,10.70
2019,04,17,03,37,10.70
2019,04,17,03,38,10.70
2019,04,17,03,39,10.70
2019,04,17,03,40,10.70
2019,04,17,03,41,10.70
2019,04,17,03,42,10.70
2019,04,17,03,43,10.70
2019,04,17,03,44,10.70
2019,04,17,03,45,10.70
2019,04,17,03,46,10.70
2019,04,17,03,47,10.70
2019,04,17,03,48,10.60
2019,04,17,03,49,10.60
2019,04,17,03,50,10.60
2019,04,17,03,51,10.60
2019,04,17,03,52,10.50
2019,04,17,03,53,10.40
2019,04,17,03,54,10.40
2019,04,17,03,55,10.40
2019,04,17,03,56,10.30
2019,04,17,03,57,10.30
2019,04,17,03,58,10.30
2019,04,17,03,59,10.30
2019,04,17,04,00,10.30
2019,04,17,04,01,10.30
2019,04,17,04,02,10.30
2019,04,17,04,03,10.20
2019,04,17,04,04,10.20
2019,04,17,04,05,10.20
2019,04,17,04,06,10.20
2019,04,17,04,07,10.20
2019,04,17,04,08,10.20
2019,04,17,04,09,10.20
2019,04,17,04,10,10.20
2019,04,17,04,11,10.20
2019,04,17,04,12,10.20
2019,04,17,04,13,10.20
2019,04,17,04,14,10.20
2019,04,17,04,15,10.20
2019,04,17,04,16,10.20
2019,04,17,04,17,10.20
2019,04,17,04,18,10.20
2019,04,17,04,19,10.20
2019,04,17,04,20,10.20
2019,04,17,04,21,10.20
2019,04,17,04,22,10.20
2019,04,17,04,23,10.20
2019,04,17,04,24,10.20
2019,04,17,04,25,10.20
2019,04,17,04,26,10.20
2019,04,17,04,27,10.10
2019,04,17,04,28,10.10
2019,04,17,04,29,10.10
2019,04,17,04,30,10.10
2019,04,17,04,31,10.10
2019,04,17,04,32,10.10
2019,04,17,04,33,10.00
2019,04,17,04,34,10.00
2019,04,17,04,35,10.00
2019,04,17,04,36,10.00
2019,04,17,04,37,10.00
2019,04,17,04,38,10.00
2019,04,17,04,39,10.00
2019,04,17,04,40,10.00
2019,04,17,04,41,10.00
2019,04,17,04,42,10.00
2019,04,17,04,43,10.00
2019,04,17,04,44,10.00
2019,04,17,04,45,10.00
2019,04,17,04,46,10.00
2019,04,17,04,47,10.10
2019,04,17,04,48,10.00
2019,04,17,04,49,10.00
2019,04,17,04,50,10.10
2019,04,17,04,51,10.00
2019,04,17,04,52,10.00
2019,04,17,04,53,10.00
2019,04,17,04,54,10.00
2019,04,17,04,55,10.00
2019,04,17,04,56,10.00
2019,04,17,04,57,10.00
2019,04,17,04,58,10.00
2019,04,17,04,59,10.00
2019,04,17,05,00,10.00
2019,04,17,05,01,10.00
2019,04,17,05,02,10.00
2019,04,17,05,03,10.00
2019,04,17,05,04,10.00
2019,04,17,05,05,10.00
2019,04,17,05,06,10.00
2019,04,17,05,07,10.00
2019,04,17,05,08,10.00
2019,04,17,05,09,10.00
2019,04,17,05,10,10.00
2019,04,17,05,11,10.00
2019,04,17,05,12,10.00
2019,04,17,05,13,10.00
2019,04,17,05,14,10.00
2019,04,17,05,15,10.00
2019,04,17,05,16,10.00
2019,04,17,05,17,10.00
2019,04,17,05,18,10.00
2019,04,17,05,19,10.00
2019,04,17,05,20,10.10
2019,04,17,05,21,10.10
2019,04,17,05,22,10.10
2019,04,17,05,23,10.10
2019,04,17,05,24,10.10
2019,04,17,05,25,10.10
2019,04,17,05,26,10.10
2019,04,17,05,27,10.10
2019,04,17,05,28,10.10
2019,04,17,05,29,10.10
2019,04,17,05,30,10.10
2019,04,17,05,31,10.10
2019,04,17,05,32,10.10
2019,04,17,05,33,10.10
2019,04,17,05,34,10.10
2019,04,17,05,35,10.10
2019,04,17,05,36,10.10
2019,04,17,05,37,10.10
2019,04,17,05,38,10.10
2019,04,17,05,39,10.10
2019,04,17,05,40,10.10
2019,04,17,05,41,10.10
2019,04,17,08,48,10.30
2019,04,17,08,49,10.30
2019,04,17,08,50,10.30
2019,04,17,08,51,10.30
2019,04,17,08,52,10.30
2019,04,17,08,53,10.30
2019,04,17,08,54,10.30
2019,04,17,08,55,10.30
2019,04,17,08,56,10.30
2019,04,17,08,57,10.30
2019,04,17,08,58,10.30
2019,04,17,08,59,10.30
2019,04,17,09,00,10.30
2019,04,17,09,01,10.30
2019,04,17,09,02,10.30
2019,04,17,09,03,10.30
2019,04,17,09,04,10.40
2019,04,17,09,05,10.40
2019,04,17,09,06,10.40
2019,04,17,09,07,10.40
2019,04,17,09,08,10.50
2019,04,17,09,09,10.50
2019,04,17,09,10,10.50
2019,04,17,09,11,10.60
2019,04,17,09,12,10.60
2019,04,17,09,13,10.60
2019,04,17,09,14,10.60
2019,04,17,09,15,10.60
2019,04,17,09,16,10.70
2019,04,17,09,17,10.70
2019,04,17,09,18,10.70
2019,04,17,09,19,10.70
2019,04,17,09,20,10.70
2019,04,17,09,21,10.70
2019,04,17,09,22,10.70
2019,04,17,09,23,10.70
2019,04,17,09,24,10.70
2019,04,17,09,25,10.80
2019,04,17,09,26,10.80
2019,04,17,09,27,10.80
2019,04,17,09,28,10.80
2019,04,17,09,29,10.80
2019,04,17,09,30,10.80
2019,04,17,09,31,10.80
2019,04,17,09,32,10.80
2019,04,17,09,33,10.80
2019,04,17,09,34,10.80
2019,04,17,09,35,10.80
2019,04,17,09,36,10.80
2019,04,17,09,37,10.80
2019,04,17,09,38,10.80
2019,04,17,09,39,10.80
2019,04,17,09,40,10.80
2019,04,17,09,41,10.80
2019,04,17,09,42,10.80
2019,04,17,09,43,10.70
2019,04,17,09,44,10.70
2019,04,17,09,45,10.70
2019,04,17,09,46,10.70
2019,04,17,09,47,10.70
2019,04,17,09,48,10.70
2019,04,17,09,49,10.80
2019,04,17,09,50,10.80
2019,04,17,09,51,10.80
2019,04,17,09,52,10.80
2019,04,17,09,53,10.80
2019,04,17,09,54,10.80
2019,04,17,09,55,10.80
2019,04,17,09,56,10.80
2019,04,17,09,57,10.80
2019,04,17,09,58,10.80
2019,04,17,09,59,10.80
2019,04,17,10,00,10.80
2019,04,17,10,01,10.70
2019,04,17,10,02,10.70
2019,04,17,10,03,10.70
2019,04,17,10,04,10.70
2019,04,17,10,05,10.70
2019,04,17,10,06,10.70
2019,04,17,10,07,10.70
2019,04,17,10,08,10.70
2019,04,17,10,09,10.70
2019,04,17,10,10,10.70
2019,04,17,10,11,10.70
2019,04,17,10,12,10.70
2019,04,17,10,13,10.70
2019,04,17,10,14,10.70
2019,04,17,10,15,10.70
2019,04,17,10,16,10.70
2019,04,17,10,17,10.70
2019,04,17,10,18,10.70
2019,04,17,10,19,10.70
2019,04,17,10,20,10.70
2019,04,17,10,21,10.70
2019,04,17,10,22,10.70
2019,04,17,10,23,10.70
2019,04,17,10,24,10.70
2019,04,17,10,25,10.80
2019,04,17,10,26,10.80
2019,04,17,10,27,10.80
2019,04,17,10,28,10.80
2019,04,17,10,29,10.80
2019,04,17,10,30,10.80
2019,04,17,10,31,10.80
2019,04,17,10,32,10.80
2019,04,17,10,33,10.80
2019,04,17,10,34,10.90
2019,04,17,10,35,10.90
2019,04,17,10,36,10.90
2019,04,17,10,37,10.90
2019,04,17,10,38,10.90
2019,04,17,10,39,10.80
2019,04,17,10,40,10.80
2019,04,17,10,41,10.80
2019,04,17,10,42,10.80
2019,04,17,10,43,10.90
2019,04,17,10,44,10.90
2019,04,17,10,45,10.90
2019,04,17,10,46,10.90
2019,04,17,10,47,10.90
2019,04,17,10,48,11.00
2019,04,17,10,49,11.00
2019,04,17,10,50,11.00
2019,04,17,10,51,11.10
2019,04,17,10,52,11.10
2019,04,17,10,53,11.10
2019,04,17,10,54,11.10
2019,04,17,10,55,11.10
2019,04,17,10,56,11.00
2019,04,17,10,57,11.00
2019,04,17,10,58,11.00
2019,04,17,10,59,10.90
2019,04,17,11,00,10.90
2019,04,17,11,01,10.90
2019,04,17,11,02,10.90
2019,04,17,11,03,10.90
2019,04,17,11,04,10.90
2019,04,17,11,05,10.90
2019,04,17,11,06,11.00
2019,04,17,11,07,11.00
2019,04,17,11,08,11.00
2019,04,17,11,09,11.00
2019,04,17,11,10,11.00
2019,04,17,11,11,11.00
2019,04,17,11,12,11.00
2019,04,17,11,13,11.00
2019,04,17,11,14,11.00
2019,04,17,11,15,11.00
2019,04,17,11,16,11.00
2019,04,17,11,17,11.00
2019,04,17,11,18,11.00
2019,04,17,11,19,11.00
2019,04,17,11,20,11.00
2019,04,17,11,21,11.10
2019,04,17,11,22,11.10
2019,04,17,11,23,11.10
2019,04,17,11,24,11.10
2019,04,17,11,25,11.00
2019,04,17,11,26,11.00
2019,04,17,11,27,11.00
2019,04,17,11,28,11.00
2019,04,17,11,29,11.10
2019,04,17,11,30,11.10
2019,04,17,11,31,11.10
2019,04,17,11,32,11.10
2019,04,17,11,33,11.10
2019,04,17,11,34,11.10
2019,04,17,11,35,11.20
2019,04,17,11,36,11.20
2019,04,17,11,37,11.20
2019,04,17,11,38,11.20
2019,04,17,11,39,11.30
2019,04,17,11,40,11.30
2019,04,17,11,41,11.30
2019,04,17,11,42,11.30
2019,04,17,11,43,11.30
2019,04,17,11,44,11.30
2019,04,17,11,45,11.30
2019,04,17,11,46,11.30
2019,04,17,11,47,11.30
2019,04,17,11,48,11.30
2019,04,17,11,49,11.30
2019,04,17,11,50,11.40
2019,04,17,11,51,11.40
2019,04,17,11,52,11.40
2019,04,17,11,53,11.50
2019,04,17,11,54,11.50
2019,04,17,11,55,11.50
2019,04,17,11,56,11.60
2019,04,17,11,57,11.60
2019,04,17,11,58,11.60
2019,04,17,11,59,11.70
2019,04,17,12,00,11.70
2019,04,17,12,01,11.70
2019,04,17,12,02,11.70
2019,04,17,12,03,11.80
2019,04,17,12,04,11.80
2019,04,17,12,05,11.80
2019,04,17,12,06,11.80
2019,04,17,12,07,11.90
2019,04,17,12,08,11.90
2019,04,17,12,09,11.90
2019,04,17,12,10,11.90
2019,04,17,12,11,11.90
2019,04,17,12,12,12.00
2019,04,17,12,13,12.00
2019,04,17,12,14,12.10
2019,04,17,12,15,12.10
2019,04,17,12,16,12.10
2019,04,17,12,17,12.20
2019,04,17,12,18,12.20
2019,04,17,12,19,12.20
2019,04,17,12,20,12.20
2019,04,17,12,21,12.20
2019,04,17,12,22,12.20
2019,04,17,12,23,12.20
2019,04,17,12,24,12.30
2019,04,17,12,25,12.30
2019,04,17,12,26,12.30
2019,04,17,12,27,12.30
2019,04,17,12,28,12.30
2019,04,17,12,29,12.30
2019,04,17,12,30,12.40
2019,04,17,12,31,12.40
2019,04,17,12,32,12.40
2019,04,17,12,33,12.50
2019,04,17,12,34,12.50
2019,04,17,12,35,12.50
2019,04,17,12,36,12.50
2019,04,17,12,37,12.50
2019,04,17,12,38,12.60
2019,04,17,12,39,12.60
2019,04,17,12,40,12.60
2019,04,17,12,41,12.60
2019,04,17,12,42,12.60
2019,04,17,12,43,12.70
2019,04,17,12,44,12.70
2019,04,17,12,45,12.70
2019,04,17,12,46,12.70
2019,04,17,12,47,12.70
2019,04,17,12,48,12.70
2019,04,17,12,49,12.70
2019,04,17,12,50,12.80
2019,04,17,12,51,12.80
2019,04,17,12,52,12.80
2019,04,17,12,53,12.80
2019,04,17,12,54,12.80
2019,04,17,12,55,12.80
2019,04,17,12,56,12.90
2019,04,17,12,57,12.90
2019,04,17,12,58,12.90
2019,04,17,12,59,12.90
2019,04,17,13,00,13.00
2019,04,17,13,01,13.00
2019,04,17,13,02,13.10
2019,04,17,13,03,13.10
2019,04,17,13,04,13.10
2019,04,17,13,05,13.10
2019,04,17,13,06,13.10
2019,04,17,13,07,13.10
2019,04,17,13,08,13.10
2019,04,17,13,09,13.10
2019,04,17,13,10,13.10
2019,04,17,13,11,13.10
2019,04,17,13,12,13.10
2019,04,17,13,13,13.10
2019,04,17,13,14,13.10
2019,04,17,13,15,13.10
2019,04,17,13,16,13.10
2019,04,17,13,17,13.20
2019,04,17,13,18,13.20
2019,04,17,13,19,13.20
2019,04,17,13,20,13.10
2019,04,17,13,21,13.10
2019,04,17,13,22,13.20
2019,04,17,13,23,13.20
2019,04,17,13,24,13.20
2019,04,17,13,25,13.20
2019,04,17,13,26,13.30
2019,04,17,13,27,13.30
2019,04,17,13,28,13.30
2019,04,17,13,29,13.30
2019,04,17,13,30,13.30
2019,04,17,13,31,13.30
2019,04,17,13,32,13.30
2019,04,17,13,33,13.30
2019,04,17,13,34,13.30
2019,04,17,13,35,13.40
2019,04,17,13,36,13.40
2019,04,17,13,37,13.50
2019,04,17,13,38,13.60
2019,04,17,13,39,13.60
2019,04,17,13,40,13.60
2019,04,17,13,41,13.60
2019,04,17,13,42,13.60
2019,04,17,13,43,13.60
2019,04,17,13,44,13.60
2019,04,17,13,45,13.60
2019,04,17,13,46,13.50
2019,04,17,13,47,13.50
2019,04,17,13,48,13.40
2019,04,17,13,49,13.40
2019,04,17,13,50,13.40
2019,04,17,13,51,13.30
2019,04,17,13,52,13.30
2019,04,17,13,53,13.30
2019,04,17,13,54,13.40
2019,04,17,13,55,13.30
2019,04,17,13,56,13.30
2019,04,17,13,57,13.30
2019,04,17,13,58,13.30
2019,04,17,13,59,13.30
2019,04,17,14,00,13.30
2019,04,17,14,01,13.30
2019,04,17,14,02,13.40
2019,04,17,14,03,13.40
2019,04,17,14,04,13.40
2019,04,17,14,05,13.30
2019,04,17,14,06,13.30
2019,04,17,14,07,13.30
2019,04,17,14,08,13.30
2019,04,17,14,09,13.30
2019,04,17,14,10,13.40
2019,04,17,14,11,13.40
2019,04,17,14,12,13.40
2019,04,17,14,13,13.30
2019,04,17,14,14,13.30
2019,04,17,14,15,13.30
2019,04,17,14,16,13.30
2019,04,17,14,17,13.30
2019,04,17,14,18,13.30
2019,04,17,14,19,13.30
2019,04,17,14,20,13.30
2019,04,17,14,21,13.30
2019,04,17,14,22,13.30
2019,04,17,14,23,13.30
2019,04,17,14,24,13.30
2019,04,17,14,25,13.30
2019,04,17,14,26,13.30
2019,04,17,14,27,13.40
2019,04,17,14,28,13.40
2019,04,17,14,29,13.40
2019,04,17,14,30,13.50
2019,04,17,14,31,13.50
2019,04,17,14,32,13.60
2019,04,17,14,33,13.60
2019,04,17,14,34,13.60
2019,04,17,14,35,13.60
2019,04,17,14,36,13.60
2019,04,17,14,37,13.60
2019,04,17,14,38,13.60
2019,04,17,14,39,13.60
2019,04,17,14,40,13.60
2019,04,17,14,41,13.70
2019,04,17,14,42,13.70
2019,04,17,14,43,13.70
2019,04,17,14,44,13.70
2019,04,17,14,45,13.60
2019,04,17,14,46,13.60
2019,04,17,14,47,13.60
2019,04,17,14,48,13.60
2019,04,17,14,49,13.60
2019,04,17,14,50,13.60
2019,04,17,14,51,13.70
2019,04,17,14,52,13.70
2019,04,17,14,53,13.70
2019,04,17,14,54,13.70
2019,04,17,14,55,13.70
2019,04,17,14,56,13.70
2019,04,17,14,57,13.70
2019,04,17,14,58,13.70
2019,04,17,14,59,13.70
2019,04,17,15,00,13.70
2019,04,17,15,01,13.70
2019,04,17,15,02,13.80
2019,04,17,15,03,13.80
2019,04,17,15,04,13.90
2019,04,17,15,05,13.90
2019,04,17,15,06,13.90
2019,04,17,15,07,14.00
2019,04,17,15,08,14.00
2019,04,17,15,09,13.90
2019,04,17,15,10,13.90
2019,04,17,15,11,13.90
2019,04,17,15,12,13.90
2019,04,17,15,13,13.90
2019,04,17,15,14,13.90
2019,04,17,15,15,13.90
2019,04,17,15,16,13.90
2019,04,17,15,17,13.90
2019,04,17,15,18,13.90
2019,04,17,15,19,13.90
2019,04,17,15,20,13.90
2019,04,17,15,21,13.90
2019,04,17,15,22,13.90
2019,04,17,15,23,13.90
2019,04,17,15,24,13.90
2019,04,17,15,25,13.90
2019,04,17,15,26,13.90
2019,04,17,15,27,14.00
2019,04,17,15,28,14.00
2019,04,17,15,29,14.00
2019,04,17,15,30,14.00
2019,04,17,15,31,14.00
2019,04,17,15,32,14.00
2019,04,17,15,33,14.00
2019,04,17,15,34,14.00
2019,04,17,15,35,14.00
2019,04,17,15,36,14.10
2019,04,17,15,37,14.00
2019,04,17,15,38,14.00
2019,04,17,15,39,14.00
2019,04,17,15,40,14.00
2019,04,17,15,41,13.90
2019,04,17,15,42,13.90
2019,04,17,15,43,14.00
2019,04,17,15,44,14.00
2019,04,17,15,45,14.00
2019,04,17,15,46,14.10
2019,04,17,15,47,14.10
2019,04,17,15,48,14.10
2019,04,17,15,49,14.10
2019,04,17,15,50,14.10
2019,04,17,15,51,14.10
2019,04,17,15,52,14.10
2019,04,17,15,53,14.10
2019,04,17,15,54,14.10
2019,04,17,15,55,14.10
2019,04,17,15,56,14.10
2019,04,17,15,57,14.10
2019,04,17,15,58,14.10
2019,04,17,15,59,14.10
2019,04,17,16,00,14.10
2019,04,17,16,01,14.00
2019,04,17,16,02,14.10
2019,04,17,16,03,14.10
2019,04,17,16,04,14.10
2019,04,17,16,05,14.10
2019,04,17,16,06,14.10
2019,04,17,16,07,14.10
2019,04,17,16,08,14.10
2019,04,17,16,09,14.10
2019,04,17,16,10,14.10
2019,04,17,16,11,14.00
2019,04,17,16,12,14.00
2019,04,17,16,13,14.00
2019,04,17,16,14,14.00
2019,04,17,16,15,14.00
2019,04,17,16,16,14.00
2019,04,17,16,17,14.00
2019,04,17,16,18,14.00
2019,04,17,16,19,14.00
2019,04,17,16,20,14.00
2019,04,17,16,21,14.00
2019,04,17,16,22,14.00
2019,04,17,16,23,14.00
2019,04,17,16,24,14.00
2019,04,17,16,25,14.00
2019,04,17,16,26,14.10
2019,04,17,16,27,14.10
2019,04,17,16,28,14.10
2019,04,17,16,29,14.10
2019,04,17,16,30,14.10
2019,04,17,16,31,14.10
2019,04,17,16,32,14.10
2019,04,17,16,33,14.10
2019,04,17,16,34,14.10
2019,04,17,16,35,14.20
2019,04,17,16,36,14.20
2019,04,17,16,37,14.20
2019,04,17,16,38,14.10
2019,04,17,16,39,14.10
2019,04,17,16,40,14.10
2019,04,17,16,41,14.10
2019,04,17,16,42,14.10
2019,04,17,16,43,14.10
2019,04,17,16,44,14.10
2019,04,17,16,45,14.10
2019,04,17,16,46,14.10
2019,04,17,16,47,14.10
2019,04,17,16,48,14.10
2019,04,17,16,49,14.10
2019,04,17,16,50,14.10
2019,04,17,16,51,14.10
2019,04,17,16,52,14.20
2019,04,17,16,53,14.20
2019,04,17,16,54,14.20
2019,04,17,16,55,14.20
2019,04,17,16,56,14.20
2019,04,17,16,57,14.20
2019,04,17,16,58,14.20
2019,04,17,16,59,14.20
2019,04,17,17,00,14.20
2019,04,17,17,01,14.20
2019,04,17,17,02,14.20
2019,04,17,17,03,14.20
2019,04,17,17,04,14.20
2019,04,17,17,05,14.20
2019,04,17,17,06,14.20
2019,04,17,17,07,14.20
2019,04,17,17,08,14.20
2019,04,17,17,09,14.10
2019,04,17,17,10,14.10
2019,04,17,17,11,14.10
2019,04,17,17,12,14.10
2019,04,17,17,13,14.10
2019,04,17,17,14,14.10
2019,04,17,17,15,14.10
2019,04,17,17,16,14.10
2019,04,17,17,17,14.10
2019,04,17,17,18,14.10
2019,04,17,17,19,14.10
2019,04,17,17,20,14.10
2019,04,17,17,21,14.10
2019,04,17,17,22,14.10
2019,04,17,17,23,14.10
2019,04,17,17,24,14.10
2019,04,17,17,25,14.10
2019,04,17,17,26,14.10
2019,04,17,17,27,14.10
2019,04,17,17,28,14.10
2019,04,17,17,29,14.10
2019,04,17,17,30,14.10
2019,04,17,17,31,14.10
2019,04,17,17,32,14.00
2019,04,17,17,33,14.00
2019,04,17,17,34,14.00
2019,04,17,17,35,14.00
2019,04,17,17,36,14.00
2019,04,17,17,37,14.00
2019,04,17,17,38,14.00
2019,04,17,17,39,14.00
2019,04,17,17,40,14.00
2019,04,17,17,41,13.90
2019,04,17,17,42,13.90
2019,04,17,17,43,13.90
2019,04,17,17,44,14.00
2019,04,17,17,45,14.00
2019,04,17,17,46,14.00
2019,04,17,17,47,14.00
2019,04,17,17,48,14.00
2019,04,17,17,49,14.00
2019,04,17,17,50,14.00
2019,04,17,17,51,14.00
2019,04,17,17,52,14.00
2019,04,17,17,53,14.00
2019,04,17,17,54,14.00
2019,04,17,17,55,14.10
2019,04,17,17,56,14.00
2019,04,17,17,57,14.10
2019,04,17,17,58,14.10
2019,04,17,17,59,14.10
2019,04,17,18,00,14.10
2019,04,17,18,01,14.10
2019,04,17,18,02,14.10
2019,04,17,18,03,14.10
2019,04,17,18,04,14.10
2019,04,17,18,05,14.10
2019,04,17,18,06,14.10
2019,04,17,18,07,14.10
2019,04,17,18,08,14.10
2019,04,17,18,09,14.10
2019,04,17,18,10,14.00
2019,04,17,18,11,14.00
2019,04,17,18,12,14.00
2019,04,17,18,13,14.00
2019,04,17,18,14,14.00
2019,04,17,18,15,13.90
2019,04,17,18,16,13.90
2019,04,17,18,17,13.90
2019,04,17,18,18,13.90
2019,04,17,18,19,13.80
2019,04,17,18,20,13.80
2019,04,17,18,21,13.80
2019,04,17,18,22,13.80
2019,04,17,18,23,13.80
2019,04,17,18,24,13.80
2019,04,17,18,25,13.80
2019,04,17,18,26,13.80
2019,04,17,18,27,13.80
2019,04,17,18,28,13.80
2019,04,17,18,29,13.80
2019,04,17,18,30,13.80
2019,04,17,18,31,13.80
2019,04,17,18,32,13.80
2019,04,17,18,33,13.80
2019,04,17,18,34,13.80
2019,04,17,18,35,13.80
2019,04,17,18,36,13.80
2019,04,17,18,37,13.80
2019,04,17,18,38,13.80
2019,04,17,18,39,13.80
2019,04,17,18,40,13.80
2019,04,17,18,41,13.80
2019,04,17,18,42,13.80
2019,04,17,18,43,13.80
2019,04,17,18,44,13.80
2019,04,17,18,45,13.80
2019,04,17,18,46,13.70
2019,04,17,18,47,13.70
2019,04,17,18,48,13.70
2019,04,17,18,49,13.70
2019,04,17,18,50,13.70
2019,04,17,18,51,13.60
2019,04,17,18,52,13.60
2019,04,17,18,53,13.60
2019,04,17,18,54,13.60
2019,04,17,18,55,13.60
2019,04,17,18,56,13.50
2019,04,17,18,57,13.50
2019,04,17,18,58,13.50
2019,04,17,18,59,13.40
2019,04,17,19,00,13.40
2019,04,17,19,01,13.40
2019,04,17,19,02,13.40
2019,04,17,19,03,13.40
2019,04,17,19,04,13.40
2019,04,17,19,05,13.40
2019,04,17,19,06,13.40
2019,04,17,19,07,13.40
2019,04,17,19,08,13.40
2019,04,17,19,09,13.40
2019,04,17,19,10,13.40
2019,04,17,19,11,13.40
2019,04,17,19,12,13.40
2019,04,17,19,13,13.40
2019,04,17,19,14,13.40
2019,04,17,19,15,13.40
2019,04,17,19,16,13.40
2019,04,17,19,17,13.40
2019,04,17,19,18,13.40
2019,04,17,19,19,13.40
2019,04,17,19,20,13.40
2019,04,17,19,21,13.40
2019,04,17,19,22,13.40
2019,04,17,19,23,13.40
2019,04,17,19,24,13.40
2019,04,17,19,25,13.40
2019,04,17,19,26,13.40
2019,04,17,19,27,13.40
2019,04,17,19,28,13.30
2019,04,17,19,29,13.30
2019,04,17,19,30,13.30
2019,04,17,19,31,13.30
2019,04,17,19,32,13.30
2019,04,17,19,33,13.30
2019,04,17,19,34,13.30
2019,04,17,19,35,13.30
2019,04,17,19,36,13.30
2019,04,17,19,37,13.30
2019,04,17,19,38,13.30
2019,04,17,19,39,13.30
2019,04,17,19,40,13.30
2019,04,17,19,41,13.30
2019,04,17,19,42,13.30
2019,04,17,19,43,13.30
2019,04,17,19,44,13.30
2019,04,17,19,45,13.30
2019,04,17,19,46,13.30
2019,04,17,19,47,13.30
2019,04,17,19,48,13.30
2019,04,17,19,49,13.30
2019,04,17,19,50,13.30
2019,04,17,19,51,13.30
2019,04,17,19,52,13.30
2019,04,17,19,53,13.30
2019,04,17,19,54,13.30
2019,04,17,19,55,13.30
2019,04,17,19,56,13.30
2019,04,17,19,57,13.30
2019,04,17,19,58,13.30
2019,04,17,19,59,13.30
2019,04,17,20,00,13.30
2019,04,17,20,01,13.30
2019,04,17,20,02,13.30
2019,04,17,20,03,13.30
2019,04,17,20,04,13.30
2019,04,17,20,05,13.30
2019,04,17,20,06,13.30
2019,04,17,20,07,13.30
2019,04,17,20,08,13.30
2019,04,17,20,09,13.30
2019,04,17,20,10,13.30
2019,04,17,20,11,13.30
2019,04,17,20,12,13.30
2019,04,17,20,13,13.30
2019,04,17,20,14,13.30
2019,04,17,20,15,13.30
2019,04,17,20,16,13.30
2019,04,17,20,17,13.30
2019,04,17,20,18,13.30
2019,04,17,20,19,13.30
2019,04,17,20,20,13.30
2019,04,17,20,21,13.30
2019,04,17,20,22,13.30
2019,04,17,20,23,13.30
2019,04,17,20,24,13.30
2019,04,17,20,25,13.30